GW4994 Weather Reports


time (UTC)temp
F
wind
direction
speed
knots
gust
knots
rain 1hr
in
rain 24hr
in
rain mn
in
humidity
%
barometer
mb
20260906100808 63 201 0.9 0.9 0.00 0.00 0.00 99 1022.6
20260906100306 63 237 0.9 1.7 0.00 0.00 0.00 99 1022.6
20260906095802 63 356 2.6 2.6 0.00 0.00 0.00 99 1022.6
20260906095257 63 327 2.6 2.6 0.00 0.00 0.00 99 1022.6
20260906094756 63 13 1.7 2.6 0.00 0.00 0.00 99 1022.6
20260906094251 63 210 0.9 1.7 0.00 0.00 0.00 99 1022.6
20260906093748 63 76 0.9 2.6 0.00 0.00 0.00 99 1022.6
20260906093243 63 343 2.6 2.6 0.00 0.00 0.00 99 1022.5
20260906092738 63 30 1.7 1.7 0.00 0.00 0.00 99 1023.0
20260906092238 63 359 2.6 2.6 0.00 0.00 0.00 99 1022.7
20260906091734 63 340 1.7 2.6 0.00 0.00 0.00 99 1022.7
20260906091230 63 302 0.9 1.7 0.00 0.00 0.00 99 1022.7
20260906090726 63 234 0.0 0.9 0.00 0.00 0.00 99 1022.6
20260906090225 63 240 0.0 0.9 0.00 0.00 0.00 99 1022.4
20260906085724 63 28 0.9 1.7 0.00 0.00 0.00 99 1022.7
20260906085223 63 302 0.9 1.7 0.00 0.00 0.00 99 1022.8
20260906084718 63 145 0.9 1.7 0.00 0.00 0.00 99 1022.5
20260906084213 63 215 0.9 1.7 0.00 0.00 0.00 99 1022.5
20260906083708 63 29 0.9 1.7 0.00 0.00 0.00 99 1022.4
20260906083203 63 290 0.9 1.7 0.00 0.00 0.00 99 1022.4
20260906082658 63 219 0.9 1.7 0.00 0.00 0.00 99 1022.4
20260906082153 63 211 0.9 0.9 0.00 0.00 0.00 99 1022.2
20260906081649 63 145 0.9 0.9 0.00 0.00 0.00 99 1022.4
20260906081144 63 191 0.0 0.9 0.00 0.00 0.00 99 1022.4
20260906080640 62 191 0.0 0.0 0.00 0.00 0.00 99 1022.2
20260906080136 62 170 0.0 0.0 0.00 0.00 0.00 99 1022.3
20260906075636 63 197 0.0 0.0 0.00 0.00 0.00 99 1022.3
20260906075130 63 162 0.0 0.0 0.00 0.00 0.00 99 1022.3
20260906074626 63 162 0.0 0.0 0.00 0.00 0.00 99 1022.4
20260906074124 63 156 0.0 0.0 0.00 0.00 0.00 99 1022.5
20260906073619 63 163 0.0 0.0 0.00 0.00 0.00 99 1022.2
20260906073115 63 163 0.0 0.0 0.00 0.00 0.00 99 1022.7
20260906072611 63 165 0.0 0.9 0.00 0.00 0.00 99 1022.3
20260906072107 63 173 0.0 0.0 0.00 0.00 0.00 99 1022.6
20260906071603 63 188 0.0 0.9 0.00 0.00 0.00 99 1022.6
20260906071102 63 170 0.0 0.0 0.00 0.00 0.00 99 1022.6
20260906070559 63 169 0.0 0.0 0.00 0.00 0.00 99 1022.8
20260906070054 63 170 0.0 0.0 0.00 0.00 0.00 99 1022.6
20260906065554 63 191 0.0 0.0 0.00 0.00 0.00 99 1022.8
20260906065049 64 195 0.0 0.0 0.00 0.00 0.00 99 1022.6
20260906064545 64 225 0.9 1.7 0.00 0.00 0.00 99 1022.8
20260906064040 64 197 0.0 0.9 0.00 0.00 0.00 99 1022.9
20260906063536 64 258 0.9 0.9 0.00 0.00 0.00 99 1022.8
20260906063032 64 193 0.0 0.0 0.00 0.00 0.00 99 1022.8
20260906062526 64 229 0.9 0.9 0.00 0.00 0.00 99 1022.7
20260906062021 64 208 0.0 0.9 0.00 0.00 0.00 99 1022.7
20260906061517 64 226 0.9 1.7 0.00 0.00 0.00 99 1022.6
20260906061016 64 213 0.9 1.7 0.00 0.00 0.00 99 1022.7
20260906060513 65 205 0.9 1.7 0.00 0.00 0.00 99 1022.7
20260906060010 65 206 0.9 0.9 0.00 0.00 0.00 99 1022.8
20260906055506 65 222 0.9 0.9 0.00 0.00 0.00 99 1022.6
20260906055001 65 205 0.0 0.9 0.00 0.00 0.00 99 1022.5
20260906054500 65 205 0.9 1.7 0.00 0.00 0.00 99 1022.5
20260906053956 65 269 0.9 1.7 0.00 0.00 0.00 99 1022.6
20260906053452 65 241 0.9 0.9 0.00 0.00 0.00 99 1022.5
20260906052948 65 230 0.9 0.9 0.00 0.00 0.00 99 1022.5
20260906052443 65 219 0.9 1.7 0.00 0.00 0.00 99 1022.6
20260906051940 65 212 0.9 0.9 0.00 0.00 0.00 99 1022.7
20260906051435 65 190 0.0 0.0 0.00 0.00 0.00 98 1022.5
20260906050931 65 189 0.0 0.0 0.00 0.00 0.00 98 1022.5
20260906050431 65 197 0.0 0.0 0.00 0.00 0.00 98 1022.4
20260906045930 65 206 0.0 0.9 0.00 0.00 0.00 98 1022.3
20260906045429 65 200 0.0 0.0 0.00 0.00 0.00 98 1022.3
20260906044926 65 194 0.0 0.0 0.00 0.00 0.00 98 1022.5
20260906044425 65 171 0.0 0.0 0.00 0.00 0.00 98 1022.1
20260906043921 66 150 0.0 0.9 0.00 0.00 0.00 98 1022.2
20260906043417 66 133 0.9 0.9 0.00 0.00 0.00 98 1022.2
20260906042913 66 106 0.9 1.7 0.00 0.00 0.00 98 1022.2
20260906042412 66 145 0.0 0.0 0.00 0.00 0.00 97 1022.3
20260906041907 66 143 0.0 0.0 0.00 0.00 0.00 97 1022.1
20260906041403 66 108 0.0 0.0 0.00 0.00 0.00 97 1022.2
20260906040902 66 163 0.0 0.0 0.00 0.00 0.00 97 1022.0
20260906040357 66 163 0.0 0.0 0.00 0.00 0.00 97 1021.8
20260906035853 67 167 0.0 0.0 0.00 0.00 0.00 97 1021.9
20260906035348 67 162 0.0 0.0 0.00 0.00 0.00 97 1022.0
20260906034843 68 192 0.0 0.0 0.00 0.00 0.00 96 1022.0
20260906034338 68 175 0.0 0.0 0.00 0.00 0.00 96 1021.9
20260906033834 68 185 0.9 1.7 0.00 0.00 0.00 96 1021.8
20260906033333 68 197 0.0 0.0 0.00 0.00 0.00 96 1021.9
20260906032830 68 159 0.0 0.9 0.00 0.00 0.00 96 1021.8
20260906032325 68 192 0.0 0.9 0.00 0.00 0.00 96 1021.8
20260906031820 68 159 0.0 0.9 0.00 0.00 0.00 95 1021.8
20260906031316 68 162 0.9 1.7 0.00 0.00 0.00 95 1021.7
20260906030815 69 150 0.0 0.9 0.00 0.00 0.00 95 1021.7
20260906030311 69 167 0.0 0.9 0.00 0.00 0.00 95 1021.9
20260906025810 69 76 2.6 2.6 0.00 0.00 0.00 95 1021.4
20260906025306 69 176 0.9 1.7 0.00 0.00 0.00 95 1021.7
20260906024804 69 138 0.9 2.6 0.00 0.00 0.00 95 1021.3
20260906024303 69 156 0.9 2.6 0.00 0.00 0.00 95 1021.2
20260906023759 69 147 0.9 0.9 0.00 0.00 0.00 95 1021.4
20260906023254 70 173 0.9 1.7 0.00 0.00 0.00 95 1021.1
20260906022749 70 172 0.0 0.9 0.00 0.00 0.00 94 1021.1
20260906022244 70 167 0.0 1.7 0.00 0.00 0.00 94 1021.1
20260906021741 70 157 0.9 1.7 0.00 0.00 0.00 94 1021.1
20260906021240 70 197 0.9 4.3 0.00 0.00 0.00 94 1020.9
20260906020735 71 136 1.7 1.7 0.00 0.00 0.00 94 1020.9
20260906020234 71 161 0.9 1.7 0.00 0.00 0.00 94 1020.8
20260906015729 71 166 0.9 4.3 0.00 0.00 0.00 94 1020.4
20260906015227 71 126 4.3 7.8 0.00 0.00 0.00 94 1020.4
20260906014722 71 179 0.9 1.7 0.00 0.00 0.00 94 1020.4
20260906014218 71 156 1.7 2.6 0.00 0.00 0.00 94 1020.4
20260906013714 71 157 0.9 2.6 0.00 0.00 0.00 94 1020.4
20260906013214 71 192 0.0 0.9 0.00 0.00 0.00 94 1020.5
20260906012709 71 164 0.9 1.7 0.00 0.00 0.00 94 1020.1
20260906012203 71 174 0.0 0.9 0.00 0.00 0.00 94 1020.1
20260906011659 71 109 1.7 2.6 0.00 0.00 0.00 95 1020.0
20260906011154 71 189 0.0 2.6 0.00 0.00 0.00 95 1020.1
20260906010649 70 231 0.9 0.9 0.00 0.00 0.00 95 1020.1
20260906010146 71 221 0.0 0.9 0.00 0.00 0.00 95 1020.0
20260906005645 71 237 0.9 1.7 0.00 0.00 0.00 95 1020.1
20260906005144 71 222 0.0 0.9 0.00 0.00 0.00 95 1020.3
20260906004643 71 223 0.9 0.9 0.00 0.00 0.00 95 1020.3
20260906004138 71 224 0.0 0.0 0.00 0.00 0.00 94 1020.6
20260906003633 71 224 0.0 0.0 0.00 0.00 0.00 94 1020.4
20260906003129 71 213 0.9 0.9 0.00 0.00 0.00 94 1020.6
20260906002624 72 273 0.9 1.7 0.00 0.00 0.00 93 1020.6
20260906002119 72 257 0.9 1.7 0.00 0.00 0.00 93 1020.6
20260906001614 72 192 0.0 0.0 0.00 0.00 0.00 93 1020.6
20260906001108 73 192 0.0 0.0 0.00 0.00 0.00 92 1020.5
20260906000604 73 199 0.0 0.0 0.00 0.00 0.00 91 1020.3
20260906000059 73 205 0.9 0.9 0.00 0.00 0.00 91 1020.3
20260905235558 73 205 0.9 0.9 0.00 0.00 0.00 90 1020.3
20260905235054 74 255 0.9 1.7 0.00 0.00 0.00 89 1020.3
20260905234549 74 157 0.0 0.9 0.00 0.00 0.00 88 1020.5
20260905234044 75 187 0.9 1.7 0.00 0.00 0.00 88 1020.5
20260905233539 75 219 0.9 1.7 0.00 0.00 0.00 87 1020.3
20260905233038 76 4 2.6 2.6 0.00 0.00 0.00 86 1020.4
20260905232533 77 143 1.7 2.6 0.00 0.00 0.00 85 1020.4
20260905232029 78 178 0.9 1.7 0.00 0.00 0.00 83 1020.4
20260905231524 78 280 0.9 4.3 0.00 0.00 0.00 82 1020.3
20260905231021 78 127 0.9 1.7 0.00 0.00 0.00 81 1020.6
20260905230519 79 66 2.6 4.3 0.00 0.00 0.00 80 1020.6
20260905230018 79 357 1.7 2.6 0.00 0.00 0.00 82 1020.3
20260905225513 78 245 1.7 1.7 0.00 0.00 0.00 83 1020.6
20260905225008 77 48 1.7 2.6 0.00 0.00 0.00 84 1020.4
20260905224503 76 68 2.6 2.6 0.00 0.00 0.00 85 1020.5
20260905224002 77 358 2.6 2.6 0.00 0.00 0.00 84 1020.4
20260905223500 78 350 1.7 6.1 0.00 0.00 0.00 83 1020.6
20260905222955 79 19 4.3 6.1 0.00 0.00 0.00 82 1020.4
20260905222450 80 141 4.3 7.0 0.00 0.00 0.00 80 1020.1
20260905221945 79 17 2.6 4.3 0.00 0.00 0.00 81 1020.1
20260905221442 80 254 0.9 2.6 0.00 0.00 0.00 79 1020.1
20260905220938 82 7 4.3 5.2 0.00 0.00 0.00 77 1019.9
20260905220434 81 107 2.6 5.2 0.00 0.00 0.00 77 1019.8
20260905215933 81 139 1.7 4.3 0.00 0.00 0.00 78 1019.9
20260905215428 80 161 0.9 2.6 0.00 0.00 0.00 79 1019.9
20260905214924 80 37 2.6 4.3 0.00 0.00 0.00 79 1020.0
20260905214420 80 356 2.6 6.1 0.00 0.00 0.00 80 1020.1
20260905213919 79 47 1.7 2.6 0.00 0.00 0.00 82 1020.0
20260905213416 78 8 1.7 2.6 0.00 0.00 0.00 83 1020.0
20260905212912 78 338 1.7 2.6 0.00 0.00 0.00 82 1020.1
20260905212406 78 347 3.5 4.3 0.00 0.00 0.00 81 1020.3
20260905211905 78 4 2.6 4.3 0.00 0.00 0.00 81 1020.3
20260905211401 78 10 2.6 6.1 0.00 0.00 0.00 81 1020.1
20260905210857 79 303 1.7 4.3 0.00 0.00 0.00 81 1020.1
20260905210356 78 16 4.3 6.1 0.00 0.00 0.00 80 1020.1
20260905205856 79 282 1.7 4.3 0.00 0.00 0.00 80 1020.0
20260905205351 78 87 2.6 4.3 0.00 0.00 0.00 79 1020.3
20260905204849 78 349 4.3 7.8 0.00 0.00 0.00 80 1020.3
20260905204346 78 56 0.9 4.3 0.00 0.00 0.00 80 1020.4
20260905203839 78 33 4.3 6.1 0.00 0.00 0.00 79 1020.4
20260905203335 79 347 1.7 5.2 0.00 0.00 0.00 80 1020.6
20260905202830 79 84 3.5 4.3 0.00 0.00 0.00 81 1020.5
20260905202325 79 19 4.3 7.0 0.00 0.00 0.00 80 1020.4
20260905201821 79 139 0.9 2.6 0.00 0.00 0.00 82 1020.6
20260905201316 79 350 3.5 6.1 0.00 0.00 0.00 82 1020.1
20260905200810 80 41 1.7 5.2 0.00 0.00 0.00 81 1020.3
20260905200307 80 128 2.6 8.7 0.00 0.00 0.00 81 1020.4
20260905195804 82 338 0.9 1.7 0.00 0.00 0.00 79 1020.1
20260905195300 81 354 1.7 4.3 0.00 0.00 0.00 80 1020.1
20260905194756 81 17 3.5 6.1 0.00 0.00 0.00 79 1020.1
20260905194254 81 162 2.6 5.2 0.00 0.00 0.00 81 1020.3
20260905193754 80 130 2.6 6.1 0.00 0.00 0.00 83 1020.3
20260905193249 81 44 2.6 9.6 0.00 0.00 0.00 81 1020.4
20260905192744 82 137 2.6 4.3 0.00 0.00 0.00 78 1020.3
20260905192241 82 226 0.0 2.6 0.00 0.00 0.00 80 1020.4
20260905191740 80 309 4.3 7.0 0.00 0.00 0.00 79 1020.1
20260905191239 79 73 2.6 6.1 0.00 0.00 0.00 81 1020.1
20260905190737 80 341 2.6 4.3 0.00 0.00 0.00 82 1020.4
20260905190236 80 280 2.6 2.6 0.00 0.00 0.00 83 1020.3
20260905185735 78 120 1.7 2.6 0.00 0.00 0.00 84 1020.5
20260905185230 78 1 3.5 5.2 0.00 0.00 0.00 84 1020.7
20260905184725 78 70 2.6 5.2 0.00 0.00 0.00 84 1020.6
20260905184224 78 176 0.9 4.3 0.00 0.00 0.00 86 1020.6
20260905183723 78 348 1.7 4.3 0.00 0.00 0.00 86 1020.5
20260905183219 78 51 2.6 2.6 0.00 0.00 0.00 85 1020.5
20260905182718 78 74 4.3 6.1 0.00 0.00 0.00 85 1020.7
20260905182213 77 63 3.5 5.2 0.00 0.00 0.00 87 1020.6
20260905181708 77 166 1.7 6.1 0.00 0.00 0.00 88 1020.8
20260905181207 76 349 1.7 5.2 0.00 0.00 0.00 88 1020.8
20260905180702 76 7 4.3 6.1 0.00 0.00 0.00 88 1020.8
20260905180157 76 25 4.3 7.0 0.00 0.00 0.00 88 1020.8
20260905175656 76 330 1.7 5.2 0.00 0.00 0.00 89 1020.9
20260905175151 75 30 1.7 4.3 0.00 0.00 0.00 90 1020.9
20260905174647 75 81 2.6 4.3 0.00 0.00 0.00 90 1020.9
20260905174143 75 34 1.7 4.3 0.00 0.00 0.00 91 1021.1
20260905173638 74 123 2.6 2.6 0.00 0.00 0.00 91 1021.0
20260905173134 74 90 2.6 4.3 0.00 0.00 0.00 92 1021.1
20260905172633 74 315 4.3 5.2 0.00 0.00 0.00 92 1021.0
20260905172128 74 309 0.9 4.3 0.00 0.00 0.00 92 1020.9
20260905171624 75 157 2.6 4.3 0.00 0.00 0.00 92 1020.9
20260905171120 75 68 1.7 1.7 0.00 0.00 0.00 92 1021.1
20260905170616 74 344 2.6 7.0 0.00 0.00 0.00 91 1021.0
20260905170111 74 32 2.6 5.2 0.00 0.00 0.00 92 1021.0
20260905165611 74 340 2.6 4.3 0.00 0.00 0.00 92 1021.1
20260905165107 74 214 0.9 0.9 0.00 0.00 0.00 92 1021.1
20260905164601 75 155 0.9 4.3 0.00 0.00 0.00 92 1021.2
20260905164055 75 38 2.6 6.1 0.00 0.00 0.00 92 1021.2
20260905163552 75 336 2.6 4.3 0.00 0.00 0.00 92 1021.2
20260905163048 75 43 1.7 2.6 0.00 0.00 0.00 92 1021.1
20260905162544 75 303 2.6 5.2 0.00 0.00 0.00 92 1020.9
20260905162043 75 43 0.9 4.3 0.00 0.00 0.00 92 1021.0
20260905161543 75 22 1.7 4.3 0.00 0.00 0.00 92 1021.0
20260905161041 75 72 1.7 5.2 0.00 0.00 0.00 92 1021.1
20260905160539 75 187 0.9 2.6 0.00 0.00 0.00 93 1020.8
20260905160034 74 64 4.3 6.1 0.00 0.00 0.00 93 1020.9
20260905155534 74 125 2.6 6.1 0.00 0.00 0.00 93 1020.8
20260905155032 74 169 0.9 4.3 0.00 0.00 0.00 94 1020.9
20260905154528 73 307 0.9 5.2 0.00 0.00 0.00 95 1020.8
20260905154023 73 16 1.7 2.6 0.00 0.00 0.00 96 1021.0
20260905153519 73 51 2.6 2.6 0.00 0.00 0.00 96 1020.7
20260905153019 73 201 0.9 2.6 0.00 0.00 0.00 97 1020.7
20260905152519 72 161 0.0 4.3 0.00 0.00 0.00 97 1021.0
20260905152014 72 163 0.9 1.7 0.00 0.00 0.00 97 1020.9
20260905151509 72 159 0.9 1.7 0.00 0.00 0.00 98 1020.8
20260905151004 72 138 1.7 4.3 0.00 0.00 0.00 98 1020.7
20260905150459 72 104 2.6 4.3 0.00 0.00 0.00 98 1020.6
20260905145956 72 99 2.6 2.6 0.00 0.00 0.00 99 1020.5
20260905145451 72 310 1.7 2.6 0.00 0.00 0.00 99 1020.7
20260905144950 72 204 0.9 1.7 0.00 0.00 0.00 99 1020.5
20260905144446 71 11 3.5 5.2 0.00 0.00 0.00 99 1020.5
20260905143944 71 102 2.6 5.2 0.00 0.00 0.00 99 1020.4
20260905143443 71 353 1.7 4.3 0.00 0.00 0.00 99 1020.3
20260905142938 71 14 1.7 2.6 0.00 0.00 0.00 99 1020.0
20260905142437 71 121 0.9 2.6 0.00 0.00 0.00 99 1020.1
20260905141933 71 134 1.7 2.6 0.00 0.00 0.00 99 1020.0
20260905141427 71 100 0.9 1.7 0.00 0.00 0.00 99 1019.9
20260905140924 71 355 2.6 5.2 0.00 0.00 0.00 99 1019.9
20260905140419 71 179 0.0 1.7 0.00 0.00 0.00 99 1019.8
20260905135918 71 86 0.9 1.7 0.00 0.00 0.00 99 1019.6
20260905135413 71 170 1.7 1.7 0.00 0.00 0.00 99 1019.7
20260905134909 71 353 2.6 2.6 0.00 0.00 0.00 99 1019.8
20260905134403 71 293 1.7 1.7 0.00 0.00 0.00 99 1019.5
20260905133856 71 275 0.9 1.7 0.00 0.00 0.00 99 1019.5
20260905133351 71 225 1.7 2.6 0.00 0.00 0.00 99 1019.7
20260905132850 71 99 1.7 4.3 0.00 0.00 0.00 99 1019.6
20260905132346 71 316 3.5 5.2 0.00 0.00 0.00 99 1019.5
20260905131846 70 66 1.7 2.6 0.00 0.00 0.00 99 1019.5
20260905131342 70 253 0.9 1.7 0.00 0.00 0.00 99 1019.7
20260905130837 70 249 0.9 2.6 0.00 0.00 0.00 99 1019.5
20260905130335 70 341 0.9 2.6 0.00 0.00 0.00 99 1019.4
20260905125831 70 254 0.9 2.6 0.00 0.00 0.00 99 1019.0
20260905125326 70 336 2.6 4.3 0.00 0.00 0.00 99 1019.3
20260905124822 70 40 5.2 7.0 0.00 0.00 0.00 99 1019.3
20260905124313 70 72 0.9 7.0 0.00 0.00 0.00 99 1019.3
20260905123813 70 332 2.6 7.0 0.00 0.00 0.00 99 1019.5
20260905123310 70 344 4.3 7.0 0.00 0.00 0.00 99 1019.4
20260905122809 70 21 3.5 5.2 0.00 0.00 0.00 99 1019.5
20260905122309 70 46 3.5 6.1 0.00 0.00 0.00 99 1019.4
20260905121804 70 355 2.6 4.3 0.00 0.00 0.00 99 1019.3
20260905121301 70 344 3.5 5.2 0.00 0.00 0.00 99 1018.8
20260905120759 70 344 2.6 4.3 0.00 0.00 0.00 99 1018.8
20260905120259 70 356 1.7 2.6 0.00 0.00 0.00 99 1018.7
20260905115754 70 321 2.6 5.2 0.00 0.00 0.00 99 1018.4
20260905115254 70 279 2.6 4.3 0.00 0.00 0.00 99 1018.6
20260905114754 70 10 5.2 6.1 0.00 0.00 0.00 99 1018.6
20260905114253 71 310 2.6 4.3 0.00 0.00 0.00 99 1018.3
20260905113752 71 11 1.7 1.7 0.00 0.00 0.00 99 1018.2
20260905113248 71 64 1.7 1.7 0.00 0.00 0.00 99 1018.1
20260905112743 71 0 2.6 2.6 0.00 0.00 0.00 99 1018.0
20260905112243 71 119 0.9 1.7 0.00 0.00 0.00 99 1018.1
20260905111739 70 223 0.9 2.6 0.00 0.00 0.00 99 1018.0
20260905111233 70 206 0.9 0.9 0.00 0.00 0.00 99 1017.6
20260905110732 70 147 0.9 0.9 0.00 0.00 0.00 99 1017.7
20260905110227 70 177 0.0 0.9 0.00 0.00 0.00 99 1017.6
20260905105722 70 177 0.0 0.0 0.00 0.00 0.00 99 1017.6
20260905105221 70 177 0.0 0.0 0.00 0.00 0.00 99 1017.6
20260905104716 71 177 0.0 0.0 0.00 0.00 0.00 99 1017.8
20260905104212 71 177 0.0 0.0 0.00 0.00 0.00 99 1017.6
20260905103707 71 218 0.9 0.9 0.00 0.00 0.00 99 1017.8
20260905103203 70 143 0.0 0.0 0.00 0.00 0.00 99 1017.5
20260905102658 70 143 0.0 1.7 0.00 0.00 0.00 99 1017.6
20260905102154 70 167 0.0 0.0 0.00 0.00 0.00 99 1017.6
20260905101653 70 156 0.0 0.9 0.00 0.00 0.00 99 1017.7